Regional Weather Roundup
Issued by NWS

Home | Current Version | Previous Version | Graphics & Text | Print | Product List | Glossary On
Versions: 1 2 3 4 5 6 7 8 9 10 11 12 13 14 15 16 17 18 19 20 21 22 23 24 25 26 27
000
ASUS45 KSLC 160610
RWRUT

UTAH REGIONAL WEATHER ROUNDUP
NATIONAL WEATHER SERVICE SALT LAKE CITY UT
1100 PM MST SUN JAN 15 2017

UTZ001>011-023>025-160700-

NORTHERN UTAH

CITY           SKY/WX    TMP DP  RH WIND       PRES   REMARKS
BRIGHAM CITY     N/A     13  10  85 N3        30.23R
HILL AFB       CLOUDY    20  13  75 E7        30.19R WCI  11
LOGAN          FOG        5   4  95 CALM      30.26R VSB 1/4
OGDEN          CLOUDY    23  18  81 NE3       30.21R
SALT LAKE CITY CLOUDY    28  25  88 N7        30.20S FOG     WCI  21
TOOELE VALLEY  CLOUDY    28  27  93 NW7       30.21R WCI  21
WENDOVER       CLEAR     25  21  86 CALM      30.22R
HEBER CITY     FOG        1  -2  85 CALM      30.14R VSB 3/4
WEST JORDAN    CLOUDY    26  26 100 NW8       30.19R WCI  18

$$

UTZ011>015-024>027-160700-

CENTRAL/NORTHEAST UTAH

CITY           SKY/WX    TMP DP  RH WIND       PRES   REMARKS
PROVO AIRPORT  CLOUDY    28  22  78 NE3       30.19R
MOAB/CANYONLAN PTCLDY    35  34  96 CALM      29.95S
DELTA          CLOUDY    30  27  86 NW5       30.17R WCI  25
PRICE          CLEAR     26  21  81 N3        29.96R
RICHFIELD      CLOUDY    30  27  86 N7        30.15R WCI  23
ROOSEVELT      CLOUDY    28  25  86 W5        30.09R WCI  23
VERNAL         CLOUDY    26  23  88 CALM      30.05R

$$

UTZ013>016-019>022-027-160700-

SOUTHERN UTAH

CITY           SKY/WX    TMP DP  RH WIND       PRES   REMARKS
BRYCE CANYON   CLOUDY    22  20  92 NW12      30.03R WCI  10
CEDAR CITY     CLOUDY    28  22  78 N10       30.09S WCI  19
MILFORD        CLOUDY    31  23  72 N7        30.14R WCI  24
ST GEORGE      PTCLDY    36  27  69 S5        30.10R WCI  32
HANKSVILLE     CLOUDY    36  36 100 MISG      30.00S
KANAB          PTCLDY    30  30 100 CALM      30.07S
BLANDING       CLOUDY    35  34  96 CALM      30.00R

$$

REGIONAL REPORTS     COLORADO/ARIZONA

CITY           SKY/WX    TMP DP  RH WIND       PRES   REMARKS
CRAIG, CO      CLOUDY    20  17  88 W5        30.06R WCI  13
GRAND JUNCTION CLOUDY    34  31  88 N6        29.96R WCI  29
RIFLE, CO      CLOUDY    32  25  75 W5        29.98R WCI  27
MONTROSE, CO   CLOUDY    35  34  96 E3        29.96S
CORTEZ, CO     CLOUDY    36  35  96 W10       29.91S WCI  28
COLORADO CITY    N/A     30  28  93 CALM      30.06S
PAGE, AZ       CLOUDY    45  37  73 N5        29.97R
GRAND CANYON   CLOUDY    34  34 100 CALM      30.02S
KINGMAN, AZ    CLEAR     36  31  82 SE6       30.04S WCI  31
FLAGSTAFF, AZ  CLOUDY    33  33 100 W3        30.01S

$$

REGIONAL REPORTS    NEVADA/IDAHO/WYOMING

CITY           SKY/WX    TMP DP  RH WIND       PRES   REMARKS
LAS VEGAS, NV  MOCLDY    47  37  68 S3        30.04R
ELY, NY        CLOUDY    23  20  88 N13       30.14R WCI  11
ELKO, NV       CLOUDY    24  18  77 NW6       30.24R WCI  17
POCATELLO, ID  CLOUDY    10   6  84 SW8       30.29R FOG     WCI  -2
BURLEY, ID     CLOUDY    12   8  84 VRB3      30.29R
FORT BRIDGER,    N/A      9   8  98 W8        30.08S WCI  -4
EVANSTON, WY   CLOUDY     6   0  76 CALM      30.08S
ROCK SPRINGS,  CLOUDY     4   0  83 W7        30.07S WCI  -8

$$




USA.gov is the U.S. government's official web portal to all federal, state and local government web resources and services.